�N����,����,����,����,����,�C��,���x,�~����,���Ǝ���,�S�V����,�ő�u�ԕ���,,,
,,,,,,,,,,����,����,����,�N��
yyyy/mm/dd,hh:mm:ss,(16),16����,m/s,��,%,mm,min,KW/�u,(16),16����,m/s,Time
2011/5/1,1:00:00,180,��,1.1,8.7,77.2,0,0,0,158,��쓌,4.9,6
2011/5/1,2:00:00,225,�쐼,1.2,7.3,85.1,0,0,0,158,��쓌,4.6,7
2011/5/1,3:00:00,180,��,1.9,7.3,88.2,0,0,0,203,��쐼,4.3,52
2011/5/1,4:00:00,225,�쐼,1.2,6.5,93.7,0,0,0,203,��쐼,3.9,32
2011/5/1,5:00:00,90,��,1,6.8,96,1,0,0,203,��쐼,3.3,31
2011/5/1,6:00:00,113,���쓌,1.2,5.5,97,0,0,0.02,45,�k��,3,26
2011/5/1,7:00:00,45,�k��,3.2,5.9,97.9,0.5,0,0.02,45,�k��,4.2,59
2011/5/1,8:00:00,45,�k��,3.8,5.1,98,0.5,0,0.05,45,�k��,5.8,59
2011/5/1,9:00:00,45,�k��,4.6,5.7,98.1,0,20,0.11,23,�k�k��,7.8,43
2011/5/1,10:00:00,23,�k�k��,2.8,6.5,97.9,1,9,0.09,45,�k��,6.2,7
2011/5/1,11:00:00,45,�k��,4.7,7,95.8,1,54,0.13,45,�k��,6.7,56
2011/5/1,12:00:00,45,�k��,4.7,7.7,95.2,1,24,0.14,45,�k��,6.6,58
2011/5/1,13:00:00,45,�k��,5,7.3,94.2,1,55,0.16,45,�k��,7.8,54
2011/5/1,14:00:00,23,�k�k��,3,7.3,94.9,1,0,0.07,23,�k�k��,6.3,9
2011/5/1,15:00:00,23,�k�k��,2.8,7.5,94.4,1,9,0.08,45,�k��,7,26
2011/5/1,16:00:00,23,�k�k��,3,7.2,93.6,1,0,0.05,45,�k��,7.1,22
2011/5/1,17:00:00,45,�k��,1.9,6.9,94.9,1,0,0.03,45,�k��,6.5,19
2011/5/1,18:00:00,45,�k��,0.8,6.5,96.1,1,0,0.02,90,��,3.8,29
2011/5/1,19:00:00,23,�k�k��,2.6,6.3,95.4,0.5,0,0,23,�k�k��,5.4,24
2011/5/1,20:00:00,45,�k��,1.5,6.1,95.8,0,0,0,23,�k�k��,4.1,19
2011/5/1,21:00:00,68,���k��,3.5,5.1,96.2,0.5,0,0,68,���k��,6.4,37
2011/5/1,22:00:00,68,���k��,4.7,4.1,97.2,1.5,0,0,45,�k��,6.7,32
2011/5/1,23:00:00,23,�k�k��,2.3,4,97.3,2,0,0,68,���k��,7.2,0
2011/5/1,0:00:00,68,���k��,3.5,3.5,97.8,0.5,0,0,68,���k��,6.6,49
2011/5/2,1:00:00,23,�k�k��,2,3.6,97.8,0,0,0,23,�k�k��,3.1,54
2011/5/2,2:00:00,90,��,1.4,3.6,94.6,0,0,0,360,�k,4.1,3
2011/5/2,3:00:00,90,��,2.4,3.3,94.4,0,0,0,90,��,4.7,35
2011/5/2,4:00:00,135,�쓌,1.6,2.9,95.6,0,0,0,90,��,3.8,18
2011/5/2,5:00:00,135,�쓌,2.1,3,96.3,0,0,0.01,158,��쓌,3.1,54
2011/5/2,6:00:00,113,���쓌,2.7,3.2,96.6,0,0,0.05,113,���쓌,5.5,30
2011/5/2,7:00:00,113,���쓌,2.1,3.8,96.8,0.5,22,0.1,113,���쓌,4.4,3
2011/5/2,8:00:00,23,�k�k��,1.1,7,93.6,0,60,0.44,68,���k��,4.1,10
2011/5/2,9:00:00,225,�쐼,2.5,10.6,74.5,0,60,0.68,248,���쐼,5.3,59
2011/5/2,10:00:00,270,��,8.2,11.3,58.5,0,60,0.76,270,��,16.4,33
2011/5/2,11:00:00,248,���쐼,9.7,11.4,49.6,0,60,1.01,270,��,15.1,59
2011/5/2,12:00:00,270,��,8.5,12.7,44.6,0,60,1.02,270,��,14.9,2
2011/5/2,13:00:00,248,���쐼,7.4,14.3,46.6,0,60,0.99,225,�쐼,12.8,17
2011/5/2,14:00:00,248,���쐼,8,13.4,44.7,0,60,0.75,248,���쐼,15.7,37
2011/5/2,15:00:00,270,��,5.1,11.5,49.9,0,60,0.35,248,���쐼,11.3,2
2011/5/2,16:00:00,315,�k��,7.5,9.4,46.9,0,60,0.23,315,�k��,15.3,26
2011/5/2,17:00:00,315,�k��,4.2,6.1,67.2,0,42,0.13,270,��,14.9,10
2011/5/2,18:00:00,315,�k��,3,6,66,0,5,0.07,293,���k��,7.2,29
2011/5/2,19:00:00,315,�k��,4.9,6.7,59.6,0,0,0.01,315,�k��,9.3,54
2011/5/2,20:00:00,338,�k�k��,2.6,5.7,63,0,0,0,338,�k�k��,8.7,8
2011/5/2,21:00:00,315,�k��,3.3,4.8,67.6,0,0,0,293,���k��,6.8,34
2011/5/2,22:00:00,338,�k�k��,2.6,4.7,65.6,0,0,0,315,�k��,7.6,20
2011/5/2,23:00:00,315,�k��,2.2,4.6,63.7,0,0,0,315,�k��,5.7,7
2011/5/2,0:00:00,68,���k��,0.9,2.4,71.1,0,0,0,315,�k��,3.6,0
2011/5/3,1:00:00,270,��,1.6,2.7,69.4,0,0,0,315,�k��,4.1,57
2011/5/3,2:00:00,338,�k�k��,2.4,4.6,63.7,0,0,0,293,���k��,5.9,18
2011/5/3,3:00:00,315,�k��,6.1,5.1,64.7,0,0,0,293,���k��,10,53
2011/5/3,4:00:00,293,���k��,4.9,5.3,62.4,0,0,0,293,���k��,12.6,12
2011/5/3,5:00:00,315,�k��,2.7,4.9,65.3,0,0,0.02,293,���k��,10.1,0
2011/5/3,6:00:00,315,�k��,4.6,7,57.5,0,45,0.18,315,�k��,10.1,47
2011/5/3,7:00:00,315,�k��,6.6,8.9,50.2,0,60,0.39,315,�k��,14.5,45
2011/5/3,8:00:00,315,�k��,7.9,10.2,45.8,0,60,0.61,315,�k��,15.9,36
2011/5/3,9:00:00,315,�k��,6.6,11.4,44.2,0,60,0.79,315,�k��,15.9,1
2011/5/3,10:00:00,315,�k��,6.5,11.6,39,0,60,0.93,315,�k��,14,50
2011/5/3,11:00:00,315,�k��,7.3,12.1,41.5,0,60,0.99,338,�k�k��,14,30
2011/5/3,12:00:00,338,�k�k��,7.2,13.3,39.9,0,60,1.05,315,�k��,13.6,50
2011/5/3,13:00:00,360,�k,6.3,13.7,40,0,60,0.9,338,�k�k��,12.6,10
2011/5/3,14:00:00,113,���쓌,3,9.9,56.5,0,60,0.72,23,�k�k��,8.2,2
2011/5/3,15:00:00,113,���쓌,5.6,8.8,56.2,0,60,0.67,113,���쓌,8.8,47
2011/5/3,16:00:00,113,���쓌,4.8,7.6,58.7,0,60,0.5,113,���쓌,8.2,54
2011/5/3,17:00:00,113,���쓌,3.8,6.9,64.2,0,60,0.31,113,���쓌,8.1,13
2011/5/3,18:00:00,158,��쓌,2.9,5.8,68.6,0,32,0.14,135,�쓌,5.9,55
2011/5/3,19:00:00,180,��,1.4,5,69.9,0,0,0.01,180,��,5.2,13
2011/5/3,20:00:00,135,�쓌,0.9,5,72.1,0,0,0,180,��,2,10
2011/5/3,21:00:00,158,��쓌,2.6,4.4,79.8,0,0,0,158,��쓌,4.3,57
2011/5/3,22:00:00,158,��쓌,2.7,3.7,85.8,0,0,0,158,��쓌,5.1,13
2011/5/3,23:00:00,135,�쓌,1.7,3.2,83.4,0,0,0,113,���쓌,3.7,28
2011/5/3,0:00:00,113,���쓌,1.3,2.7,85.8,0,0,0,135,�쓌,2.9,13
2011/5/4,1:00:00,180,��,1.9,3,84.5,0,0,0,158,��쓌,3.8,32
2011/5/4,2:00:00,158,��쓌,0.4,2.3,88.5,0,0,0,203,��쐼,2.8,8
2011/5/4,3:00:00,135,�쓌,1,2.8,86,0,0,0,135,�쓌,1.8,25
2011/5/4,4:00:00,113,���쓌,0.7,2.8,88.9,0,0,0,135,�쓌,1.6,2
2011/5/4,5:00:00,158,��쓌,0.9,2.4,89.1,0,0,0.01,158,��쓌,2.5,45
2011/5/4,6:00:00,113,���쓌,0.9,2.3,91.2,0,0,0.03,180,��,1.9,7
2011/5/4,7:00:00,113,���쓌,2,3.3,91.3,0.5,15,0.11,90,��,3.7,59
2011/5/4,8:00:00,68,���k��,1.6,3.2,92,0,38,0.14,90,��,4.1,14
2011/5/4,9:00:00,90,��,2.4,2.4,92.8,0,6,0.1,68,���k��,3.6,59
2011/5/4,10:00:00,68,���k��,1.5,0.7,96.7,2,0,0.06,90,��,3,14
2011/5/4,11:00:00,45,�k��,1.3,0.6,98,1.5,38,0.14,68,���k��,2.6,39
2011/5/4,12:00:00,45,�k��,1.3,0.7,98.4,1,58,0.15,45,�k��,2.5,11
2011/5/4,13:00:00,23,�k�k��,2.2,1.3,98.3,1,42,0.21,45,�k��,2.6,5
2011/5/4,14:00:00,45,�k��,1.7,2.4,95.7,0.5,60,0.33,23,�k�k��,3.1,40
2011/5/4,15:00:00,68,���k��,3.5,2.8,94.9,0,60,0.23,68,���k��,4.6,59
2011/5/4,16:00:00,90,��,3,2.4,94.5,0,60,0.17,90,��,4.7,11
2011/5/4,17:00:00,90,��,1.6,2.4,95.2,0,16,0.11,90,��,3.9,3
2011/5/4,18:00:00,90,��,1.4,2.1,95,0,0,0.03,90,��,2.8,16
2011/5/4,19:00:00,113,���쓌,0.9,1.9,96,0,0,0,113,���쓌,2.2,31
2011/5/4,20:00:00,113,���쓌,0.3,2,95.5,0,0,0,113,���쓌,1.3,12
2011/5/4,21:00:00,90,��,0.9,2.1,95.2,0,0,0,90,��,1.5,57
2011/5/4,22:00:00,203,��쐼,0.4,2,96.1,0,0,0,113,���쓌,1.3,3
2011/5/4,23:00:00,158,�É�,0.1,2.1,95.3,0,0,0,338,�k�k��,0.6,40
2011/5/4,0:00:00,225,�쐼,0.4,2.2,96.2,0,0,0,203,��쐼,0.7,5
2011/5/5,1:00:00,315,�É�,0.1,2.4,94.7,0,0,0,315,�k��,3.3,50
2011/5/5,2:00:00,248,�É�,0.1,2.3,96.1,0,0,0,225,�쐼,0.5,21
2011/5/5,3:00:00,225,�쐼,0.9,2,97,0,0,0,248,���쐼,1.3,41
2011/5/5,4:00:00,248,���쐼,0.7,1.5,97.2,0,0,0,225,�쐼,1.5,59
2011/5/5,5:00:00,225,�쐼,0.5,1.8,97.7,0,0,0.01,270,��,1.8,59
2011/5/5,6:00:00,315,�k��,1.1,2.1,96.3,0,1,0.07,270,��,2.3,26
2011/5/5,7:00:00,315,�k��,0.8,3.2,93.1,0,60,0.19,270,��,2.7,18
2011/5/5,8:00:00,135,�쓌,2.9,3.6,87.6,0,60,0.37,135,�쓌,4.6,52
2011/5/5,9:00:00,113,���쓌,2.6,4.4,84.7,0,60,0.55,158,��쓌,4.5,47
2011/5/5,10:00:00,135,�쓌,3.4,5.7,79.1,0,60,0.91,135,�쓌,5.7,52
2011/5/5,11:00:00,158,��쓌,3.7,5.9,77,0,60,0.99,158,��쓌,7.4,20
2011/5/5,12:00:00,158,��쓌,4.5,5.5,73.9,0,60,0.92,135,�쓌,7.9,10
2011/5/5,13:00:00,180,��,3.3,5.3,77.9,0,60,0.47,158,��쓌,7.5,4
2011/5/5,14:00:00,158,��쓌,3,5.2,81.6,0,60,0.28,135,�쓌,5.6,50
2011/5/5,15:00:00,180,��,3.9,6,76.9,0,60,0.54,158,��쓌,6.1,28
2011/5/5,16:00:00,180,��,3.6,5.8,76.6,0,60,0.55,158,��쓌,6.1,46
2011/5/5,17:00:00,180,��,3.2,5,82.2,0,60,0.33,158,��쓌,5.9,32
2011/5/5,18:00:00,135,�쓌,1.5,3.6,90.9,0,28,0.11,180,��,4.8,4
2011/5/5,19:00:00,90,��,0.9,2,95.7,0,0,0.01,158,��쓌,2,7
2011/5/5,20:00:00,68,���k��,0.9,0.9,97.5,0,0,0,45,�k��,1.3,45
2011/5/5,21:00:00,23,�k�k��,0.8,3,97.5,0,0,0,23,�k�k��,1.6,42
2011/5/5,22:00:00,23,�k�k��,1.1,3.4,96.6,0,0,0,45,�k��,2.2,28
2011/5/5,23:00:00,45,�k��,1.9,3.8,96,0,0,0,45,�k��,2.5,58
2011/5/5,0:00:00,360,�k,1.5,3.9,95.5,0,0,0,45,�k��,2.7,3
2011/5/6,1:00:00,23,�k�k��,1.8,3.9,94.3,0,0,0,360,�k,3,59
2011/5/6,2:00:00,338,�k�k��,1.8,3.8,93.7,0,0,0,360,�k,3.5,45
2011/5/6,3:00:00,338,�k�k��,2,3.8,93,0,0,0,338,�k�k��,3.3,39
2011/5/6,4:00:00,360,�k,2,3.8,91.8,0,0,0,360,�k,3.7,35
2011/5/6,5:00:00,23,�k�k��,2.3,3.7,91.7,0,0,0.01,360,�k,3.6,41
2011/5/6,6:00:00,360,�k,1.2,3.8,90.9,0,0,0.04,23,�k�k��,3,1
2011/5/6,7:00:00,68,���k��,1.5,4.2,90.8,0,0,0.09,45,�k��,2.6,20
2011/5/6,8:00:00,68,���k��,0.9,4.6,89,0,45,0.14,45,�k��,1.9,55
2011/5/6,9:00:00,90,��,2.4,4.8,87.6,0,60,0.2,90,��,4,29
2011/5/6,10:00:00,135,�쓌,2.6,5,84.6,0,60,0.29,158,��쓌,4.3,50
2011/5/6,11:00:00,135,�쓌,3.2,5.9,79.7,0,60,0.47,180,��,5.8,32
2011/5/6,12:00:00,90,��,3.7,6.7,84.8,0,60,0.54,90,��,5.2,54
2011/5/6,13:00:00,90,��,2.7,5.9,88.6,0,60,0.39,90,��,5.3,33
2011/5/6,14:00:00,135,�쓌,3.5,6.2,87.1,0,60,0.33,135,�쓌,5.6,38
2011/5/6,15:00:00,90,��,3.7,6.5,87.8,0,60,0.37,90,��,6.5,39
2011/5/6,16:00:00,135,�쓌,3.6,6.9,84.1,0,60,0.38,113,���쓌,7.3,56
2011/5/6,17:00:00,158,��쓌,4.3,5.4,89.6,0,40,0.16,158,��쓌,7.3,59
2011/5/6,18:00:00,180,��,4.7,5.1,92,0,5,0.08,180,��,8.9,38
2011/5/6,19:00:00,180,��,4.4,4.9,92,0,0,0.01,180,��,9.7,44
2011/5/6,20:00:00,203,��쐼,4.3,4.8,92.9,0,0,0,203,��쐼,8.6,18
2011/5/6,21:00:00,180,��,4.6,4.7,92.7,0,0,0,203,��쐼,8.4,7
2011/5/6,22:00:00,180,��,4.3,4.7,93.1,0,0,0,180,��,7.6,5
2011/5/6,23:00:00,180,��,2.9,4.8,91.6,0,0,0,180,��,8.2,2
2011/5/6,0:00:00,225,�쐼,2.7,4.7,93.4,0,0,0,180,��,6.1,18
2011/5/7,1:00:00,180,��,3.6,4.7,93.7,0,0,0,180,��,6.2,56
2011/5/7,2:00:00,180,��,3.5,4.9,93.4,0,0,0,180,��,6.4,47
2011/5/7,3:00:00,135,�쓌,2.3,4.6,94.5,0,0,0,158,��쓌,6.3,0
2011/5/7,4:00:00,203,��쐼,1.2,4.9,95.6,0,0,0,180,��,3.4,44
2011/5/7,5:00:00,68,���k��,1.8,5,96.2,0,0,0.01,180,��,2.9,5
2011/5/7,6:00:00,45,�k��,1.4,4.7,97.4,0,0,0.02,90,��,3.5,1
2011/5/7,7:00:00,360,�k,1.7,5.2,97.8,0,0,0.03,360,�k,2.6,48
2011/5/7,8:00:00,45,�k��,1.7,5.5,97.8,0,0,0.06,45,�k��,2.9,23
2011/5/7,9:00:00,45,�k��,2,5.6,97.8,0,0,0.1,90,��,3,47
2011/5/7,10:00:00,90,��,1.7,6.1,98.1,0,35,0.14,90,��,2.9,22
2011/5/7,11:00:00,90,��,1.6,7.2,97.7,0,60,0.2,68,���k��,2.6,59
2011/5/7,12:00:00,68,���k��,1.6,7.2,96.2,0,42,0.14,68,���k��,2.6,10
2011/5/7,13:00:00,45,�k��,3,7,96.9,0,47,0.18,68,���k��,4.2,47
2011/5/7,14:00:00,68,���k��,3.1,6.9,97.3,0,39,0.13,68,���k��,4.1,46
2011/5/7,15:00:00,45,�k��,1.9,6.8,97.8,0,3,0.07,90,��,4.1,2
2011/5/7,16:00:00,360,�k,0.7,7.9,98.2,0.5,16,0.1,45,�k��,1.8,0
2011/5/7,17:00:00,23,�k�k��,1.8,8.4,98.2,0,0,0.05,360,�k,2.8,0
2011/5/7,18:00:00,23,�k�k��,1.9,8.4,98.2,0,0,0.02,23,�k�k��,4.1,0
2011/5/7,19:00:00,23,�k�k��,2,8,98.2,0,0,0.01,23,�k�k��,3.1,35
2011/5/7,20:00:00,315,�k��,2.4,8.1,98.3,0,0,0,338,�k�k��,4.5,57
2011/5/7,21:00:00,315,�k��,1.5,7.7,98,1.5,0,0,293,���k��,3.7,2
2011/5/7,22:00:00,45,�k��,0.6,7.6,97.8,0.5,0,0,338,�k�k��,1.7,0
2011/5/7,23:00:00,180,��,6.7,9.2,98.1,0,0,0,180,��,12.2,55
2011/5/7,0:00:00,180,��,6.2,9,97.7,1.5,0,0,203,��쐼,13.4,30
2011/5/8,1:00:00,180,��,7.4,9.4,97.5,0,0,0,203,��쐼,14.7,52
2011/5/8,2:00:00,315,�k��,2.4,8.2,96,2.5,0,0,180,��,13.7,4
2011/5/8,3:00:00,270,��,2.7,7.6,96.9,1.5,0,0,293,���k��,4.6,32
2011/5/8,4:00:00,248,���쐼,2.5,6.5,97.2,0,0,0,203,��쐼,3.9,47
2011/5/8,5:00:00,293,���k��,2.8,7.1,94.2,0,0,0.02,203,��쐼,6.4,27
2011/5/8,6:00:00,315,�k��,1.7,9.1,92.8,0,48,0.17,270,��,3.8,8
2011/5/8,7:00:00,180,��,1.5,12.4,82.6,0,60,0.37,158,��쓌,2.9,59
2011/5/8,8:00:00,180,��,0.6,14.2,70.8,0,60,0.55,180,��,6.1,50
2011/5/8,9:00:00,248,���쐼,6.7,17,55.3,0,60,0.76,270,��,11,36
2011/5/8,10:00:00,248,���쐼,6,17.3,51.6,0,60,0.9,248,���쐼,9.6,23
2011/5/8,11:00:00,270,��,3.2,18.6,48,0,60,0.99,248,���쐼,8.6,0
2011/5/8,12:00:00,338,�k�k��,3.9,18.8,53.5,0,60,0.76,360,�k,7.4,46
2011/5/8,13:00:00,315,�k��,3.7,17.2,51.8,0,60,0.35,338,�k�k��,8.4,20
2011/5/8,14:00:00,315,�k��,2.7,15.6,48.8,0,60,0.21,315,�k��,8.7,50
2011/5/8,15:00:00,293,���k��,3.1,15.6,52.1,0,60,0.22,315,�k��,7.5,29
2011/5/8,16:00:00,293,���k��,3.2,14.7,53.5,0,43,0.14,293,���k��,7.1,40
2011/5/8,17:00:00,315,�k��,3.9,13.8,51.4,0,34,0.14,293,���k��,7.8,20
2011/5/8,18:00:00,338,�k�k��,3.7,12.5,53.9,0,14,0.09,338,�k�k��,8.6,21
2011/5/8,19:00:00,315,�k��,3,10.4,62.3,0,0,0.01,338,�k�k��,8,8
2011/5/8,20:00:00,270,��,1.6,8.3,71.6,0,0,0,338,�k�k��,4.8,20
2011/5/8,21:00:00,293,���k��,3.3,8.3,73.8,0,0,0,293,���k��,5.1,59
2011/5/8,22:00:00,315,�k��,3.4,8,75.4,0,0,0,315,�k��,5.5,52
2011/5/8,23:00:00,293,���k��,2,6,79.7,0,0,0,293,���k��,6.3,28
2011/5/8,0:00:00,270,��,3.3,4.8,86.8,0,0,0,293,���k��,4.9,46
2011/5/9,1:00:00,293,���k��,3.1,5.6,83.3,0,0,0,248,���쐼,5.6,20
2011/5/9,2:00:00,270,��,3.8,5.5,85.2,0,0,0,270,��,5.6,51
2011/5/9,3:00:00,293,���k��,3.9,6.9,82.3,0,0,0,338,�k�k��,6.6,43
2011/5/9,4:00:00,270,��,2.2,4.3,90.2,0.5,0,0,293,���k��,5.6,3
2011/5/9,5:00:00,315,�k��,2.6,5.8,87.9,0,0,0.04,315,�k��,3.8,56
2011/5/9,6:00:00,293,���k��,2,8,71.9,0,46,0.18,248,���쐼,4.1,34
2011/5/9,7:00:00,338,�k�k��,4,10,63.4,0,60,0.42,338,�k�k��,7.2,53
2011/5/9,8:00:00,315,�k��,4.4,12.1,58.1,0,60,0.6,315,�k��,8.1,51
2011/5/9,9:00:00,315,�k��,4,13.6,44.7,0,60,0.77,338,�k�k��,8,12
2011/5/9,10:00:00,315,�k��,3.9,16.1,33.7,0,60,0.91,270,��,7.9,10
2011/5/9,11:00:00,158,��쓌,5.1,12.4,54.8,0,60,1.01,158,��쓌,8.7,40
2011/5/9,12:00:00,158,��쓌,5.3,13.6,46.8,0,60,1.02,158,��쓌,7.9,29
2011/5/9,13:00:00,158,��쓌,4.3,14.4,44.5,0,60,0.99,180,��,7.2,51
2011/5/9,14:00:00,158,��쓌,6.3,16.2,38.4,0,60,0.85,158,��쓌,11.3,0
2011/5/9,15:00:00,180,��,3.8,16.6,36.4,0,60,0.6,180,��,10.8,30
2011/5/9,16:00:00,203,��쐼,2.3,14.4,46,0,60,0.35,180,��,6.7,7
2011/5/9,17:00:00,225,�쐼,1.1,14.8,44.3,0,27,0.12,203,��쐼,3.4,28
2011/5/9,18:00:00,203,��쐼,2.3,13.5,55,0,0,0.04,203,��쐼,3.3,59
2011/5/9,19:00:00,270,��,2,12.3,61.2,0,0,0,248,���쐼,4.2,33
2011/5/9,20:00:00,293,���k��,1.8,13.9,49.1,0,0,0,293,���k��,3.6,34
2011/5/9,21:00:00,315,�k��,1.5,13.1,53.8,0,0,0,293,���k��,3.8,33
2011/5/9,22:00:00,68,���k��,3.2,11.2,66.8,0,0,0,68,���k��,4.3,54
2011/5/9,23:00:00,23,�k�k��,1.8,10.7,71.6,0,0,0,68,���k��,5.6,19
2011/5/9,0:00:00,68,���k��,1.2,9.5,77.9,0,0,0,45,�k��,4.1,5
2011/5/10,1:00:00,45,�k��,2.1,7.4,84.2,0,0,0,113,���쓌,4.3,31
2011/5/10,2:00:00,45,�k��,2.4,6.8,88.2,0,0,0,23,�k�k��,3.7,55
2011/5/10,3:00:00,23,�k�k��,3.8,5.9,91.5,0,0,0,23,�k�k��,5.9,48
2011/5/10,4:00:00,45,�k��,4.5,4.9,94.7,0,0,0,45,�k��,7.4,30
2011/5/10,5:00:00,23,�k�k��,4.8,4.6,95.9,0,0,0,23,�k�k��,9.1,28
2011/5/10,6:00:00,23,�k�k��,3.4,4.7,95.9,0.5,0,0.02,360,�k,6.2,32
2011/5/10,7:00:00,360,�k,1.6,5,95.4,0.5,0,0.03,23,�k�k��,6.1,3
2011/5/10,8:00:00,338,�k�k��,1.6,5.7,95.2,0,0,0.06,360,�k,4.4,19
2011/5/10,9:00:00,338,�k�k��,1.1,6.8,92.2,0,44,0.18,315,�k��,2.6,41
2011/5/10,10:00:00,90,��,3.9,6.5,93.8,0,60,0.25,90,��,5.5,53
2011/5/10,11:00:00,68,���k��,4.7,5.7,90.2,0,60,0.26,68,���k��,6.5,44
2011/5/10,12:00:00,90,��,3.3,6.3,90.3,0,60,0.25,68,���k��,5.9,0
2011/5/10,13:00:00,135,�쓌,2.5,6.2,84.9,0,60,0.42,90,��,5,12
2011/5/10,14:00:00,158,��쓌,4.2,8,79.7,0,60,0.67,135,�쓌,6.3,58
2011/5/10,15:00:00,158,��쓌,4.3,6.8,80,0,60,0.58,135,�쓌,7.8,29
2011/5/10,16:00:00,158,��쓌,3,5.8,84.9,0,60,0.31,158,��쓌,6.4,0
2011/5/10,17:00:00,158,��쓌,2.3,5.8,83.1,0,49,0.18,180,��,4.6,24
2011/5/10,18:00:00,180,��,2.3,4.7,87.9,0,41,0.14,180,��,4.1,37
2011/5/10,19:00:00,113,���쓌,0.9,3.4,93.7,0,0,0.02,180,��,2.6,0
2011/5/10,20:00:00,45,�k��,1,3.8,94.6,0,0,0,45,�k��,1.6,49
2011/5/10,21:00:00,45,�k��,0.4,3.9,95.2,0,0,0,360,�k,1.9,9
2011/5/10,22:00:00,270,��,0.7,4.4,94.5,0,0,0,293,���k��,1.3,48
2011/5/10,23:00:00,270,��,0.3,4.6,94.5,0,0,0,248,���쐼,1.8,29
2011/5/10,0:00:00,270,��,0.8,4.5,94.9,0,0,0,23,�k�k��,1.9,16
2011/5/11,1:00:00,270,��,1.8,4.8,95.4,0,0,0,270,��,2.6,34
2011/5/11,2:00:00,315,�k��,0.9,4.8,96.1,0,0,0,293,���k��,2,36
2011/5/11,3:00:00,293,���k��,0.4,4.8,95.8,0,0,0,225,�쐼,1.5,35
2011/5/11,4:00:00,203,��쐼,1.3,4.7,96.3,0,0,0,180,��,1.9,57
2011/5/11,5:00:00,45,�k��,0.9,4.8,95.7,0,0,0.02,225,�쐼,2.1,20
2011/5/11,6:00:00,113,���쓌,0.6,5.4,93.7,0,19,0.12,23,�k�k��,2.8,44
2011/5/11,7:00:00,225,�쐼,1.8,6,88.1,0,60,0.35,225,�쐼,3.2,55
2011/5/11,8:00:00,225,�쐼,2.1,9.6,76.9,0,60,0.59,225,�쐼,5.3,37
2011/5/11,9:00:00,158,��쓌,2.2,8.7,74.6,0,60,0.78,158,��쓌,4.9,50
2011/5/11,10:00:00,158,��쓌,2.9,7.4,78.3,0.5,60,0.92,180,��,5.7,0
2011/5/11,11:00:00,180,��,5.4,10.5,68.1,0,60,1.01,203,��쐼,9.1,30
2011/5/11,12:00:00,180,��,5.3,11,62.9,0,60,0.92,180,��,9.9,50
2011/5/11,13:00:00,158,��쓌,5.2,12.8,49.6,0,60,1.02,180,��,9.9,10
2011/5/11,14:00:00,158,��쓌,5.2,12,53.4,0,60,0.87,113,���쓌,9.7,50
2011/5/11,15:00:00,158,��쓌,4.8,10.2,63.7,0,60,0.73,135,�쓌,9.8,20
2011/5/11,16:00:00,158,��쓌,4.3,9.6,65.1,0,60,0.55,158,��쓌,8.3,10
2011/5/11,17:00:00,180,��,3,9.8,63.1,0,60,0.34,158,��쓌,6.8,52
2011/5/11,18:00:00,135,�쓌,1.3,7.9,72.4,0,36,0.14,158,��쓌,4.8,12
2011/5/11,19:00:00,45,�k��,3.3,5.6,86.1,0,0,0.02,68,���k��,5.1,33
2011/5/11,20:00:00,45,�k��,4,5.3,90.5,0,0,0,45,�k��,6,18
2011/5/11,21:00:00,360,�k,2.1,4.3,93,0,0,0,45,�k��,5.9,2
2011/5/11,22:00:00,338,�k�k��,1.6,4,94,0,0,0,360,�k,3.6,10
2011/5/11,23:00:00,338,�k�k��,1.7,3,93.8,0,0,0,315,�k��,3.1,12
2011/5/11,0:00:00,360,�k,1.9,1.3,96.5,0,0,0,360,�k,2.9,34
2011/5/12,1:00:00,293,���k��,1.9,-0.4,98,0,0,0,315,�k��,2.9,59
2011/5/12,2:00:00,293,���k��,1.9,-0.5,97.6,0,0,0,293,���k��,2.9,48
2011/5/12,3:00:00,270,��,1.1,-1.5,96.8,0,0,0,270,��,2.4,6
2011/5/12,4:00:00,248,���쐼,1.3,-0.7,98.3,0,0,0,270,��,3,33
2011/5/12,5:00:00,270,��,1.9,-0.6,97.9,0,0,0.05,293,���k��,2.7,23
2011/5/12,6:00:00,270,��,1.2,4,91.3,0,58,0.21,270,��,2.2,0
2011/5/12,7:00:00,135,�쓌,0.4,8.1,76.7,0,60,0.41,248,���쐼,1.6,11
2011/5/12,8:00:00,113,���쓌,1.3,10.8,69.6,0,60,0.62,158,��쓌,3.1,38
2011/5/12,9:00:00,135,�쓌,2.3,11.1,58.6,0,60,0.8,135,�쓌,4.3,50
2011/5/12,10:00:00,135,�쓌,3.7,10.2,58.5,0,60,0.92,158,��쓌,6.3,0
2011/5/12,11:00:00,135,�쓌,4.9,9.5,70.2,0,60,0.98,158,��쓌,8.1,40
2011/5/12,12:00:00,158,��쓌,4.7,8,74.3,0,60,1,158,��쓌,8.6,40
2011/5/12,13:00:00,158,��쓌,4.7,8.4,73.6,0,60,0.96,180,��,8.7,0
2011/5/12,14:00:00,158,��쓌,3,6.5,82.9,0,60,0.69,180,��,8.1,20
2011/5/12,15:00:00,135,�쓌,2.1,8.5,75.8,0,60,0.53,158,��쓌,4.3,1
2011/5/12,16:00:00,135,�쓌,1.9,7.8,79.2,0,60,0.42,135,�쓌,4.2,12
2011/5/12,17:00:00,135,�쓌,1.8,6.2,83.5,0,60,0.28,135,�쓌,4,28
2011/5/12,18:00:00,90,��,2.5,3.8,93.6,0,38,0.13,90,��,3.4,23
2011/5/12,19:00:00,68,���k��,2.2,3.1,97.2,0,0,0.01,68,���k��,3.4,50
2011/5/12,20:00:00,45,�k��,3.7,3,98.1,0,0,0,45,�k��,5.2,55
2011/5/12,21:00:00,45,�k��,1.3,3.4,98.3,0,0,0,45,�k��,5.1,6
2011/5/12,22:00:00,68,���k��,2.5,3.5,97.9,0,0,0,68,���k��,3.3,55
2011/5/12,23:00:00,23,�k�k��,2,3.5,97,0,0,0,45,�k��,3.5,38
2011/5/12,0:00:00,360,�k,2.2,3.7,95.4,0,0,0,45,�k��,5.3,15
2011/5/13,1:00:00,23,�k�k��,2.6,3.7,95,0,0,0,360,�k,3.6,55
2011/5/13,2:00:00,360,�k,3.2,3.7,94.8,0,0,0,360,�k,4.8,53
2011/5/13,3:00:00,338,�k�k��,2.2,4,94.4,0,0,0,360,�k,4.1,5
2011/5/13,4:00:00,338,�k�k��,1.5,3.7,95.2,1,0,0,338,�k�k��,2.7,4
2011/5/13,5:00:00,315,�k��,1.9,3.4,96.6,3.5,0,0.01,315,�k��,3.1,52
2011/5/13,6:00:00,315,�k��,1.9,3.4,96.6,3,0,0.02,293,���k��,4.5,33
2011/5/13,7:00:00,338,�k�k��,1.3,4,96.8,3.5,0,0.04,360,�k,3.5,46
2011/5/13,8:00:00,315,�k��,1.7,4.1,96.4,4.5,0,0.03,293,���k��,3,51
2011/5/13,9:00:00,23,�k�k��,3.1,4.6,96,4,0,0.05,360,�k,5.1,58
2011/5/13,10:00:00,360,�k,2.3,4.8,95.5,4.5,0,0.08,23,�k�k��,5.8,22
2011/5/13,11:00:00,338,�k�k��,2.1,5.3,95.4,5,4,0.1,23,�k�k��,4.9,8
2011/5/13,12:00:00,45,�k��,2.2,5.5,95.6,4,8,0.09,23,�k�k��,4.4,34
2011/5/13,13:00:00,23,�k�k��,3.3,5.8,96,2,12,0.09,360,�k,5.3,53
2011/5/13,14:00:00,360,�k,0.4,6.9,96.2,1.5,21,0.12,360,�k,4.6,17
2011/5/13,15:00:00,45,�k��,2.7,6.9,94.8,0.5,40,0.14,45,�k��,4.7,53
2011/5/13,16:00:00,45,�k��,1.3,7.2,95.7,0,21,0.11,68,���k��,5.5,4
2011/5/13,17:00:00,45,�k��,3.3,6.5,95,0,0,0.04,68,���k��,5.2,56
2011/5/13,18:00:00,68,���k��,4,5.6,96.2,0.5,0,0.02,68,���k��,6.2,49
2011/5/13,19:00:00,45,�k��,4.5,5.2,96.7,0.5,0,0,45,�k��,6.3,59
2011/5/13,20:00:00,68,���k��,2.5,5,97.4,0,0,0,68,���k��,6.9,28
2011/5/13,21:00:00,68,���k��,4.6,4.9,97.9,0,0,0,68,���k��,6.2,52
2011/5/13,22:00:00,68,���k��,3.7,4.4,98.3,0,0,0,90,��,6.5,33
2011/5/13,23:00:00,45,�k��,4.7,4.5,98.4,0,0,0,68,���k��,7.6,30
2011/5/13,0:00:00,23,�k�k��,3.5,4.1,98.6,0,0,0,45,�k��,7.9,8
2011/5/14,1:00:00,68,���k��,2.7,4.2,98.6,0,0,0,45,�k��,6.6,19
2011/5/14,2:00:00,90,��,3.5,4.2,98.5,0,0,0,45,�k��,5.5,1
2011/5/14,3:00:00,90,��,2.4,4.1,98.3,0,0,0,90,��,4.9,14
2011/5/14,4:00:00,68,���k��,1.7,4.2,98.3,0,0,0,90,��,5.9,34
2011/5/14,5:00:00,45,�k��,3.2,4.2,98.3,0,0,0.01,45,�k��,5.9,44
2011/5/14,6:00:00,23,�k�k��,3.5,4.5,98.3,0,0,0.04,23,�k�k��,5.8,5
2011/5/14,7:00:00,23,�k�k��,2.8,4.9,98,0,2,0.08,45,�k��,6.5,6
2011/5/14,8:00:00,45,�k��,1.6,5.8,94.7,0,49,0.15,360,�k,3.5,0
2011/5/14,9:00:00,45,�k��,1.1,6.7,93.9,0,58,0.21,113,���쓌,3.5,22
2011/5/14,10:00:00,113,���쓌,1.4,6.6,91.1,0,60,0.25,113,���쓌,3.2,34
2011/5/14,11:00:00,90,��,0.7,8.4,85.3,0,60,0.41,158,��쓌,2.7,5
2011/5/14,12:00:00,113,���쓌,1.5,9.8,81.6,0,60,1.01,113,���쓌,4.8,58
2011/5/14,13:00:00,135,�쓌,2.2,9.7,75.8,0,60,0.85,135,�쓌,4.7,34
2011/5/14,14:00:00,158,��쓌,1.9,11.1,77.1,0,60,0.59,158,��쓌,3.9,45
2011/5/14,15:00:00,248,���쐼,5,14.2,59.3,0,60,0.73,248,���쐼,7.8,50
2011/5/14,16:00:00,68,���k��,3.8,10.1,76,0,60,0.66,225,�쐼,8.7,13
2011/5/14,17:00:00,45,�k��,4,11.3,72.9,0,60,0.36,45,�k��,6.7,0
2011/5/14,18:00:00,158,��쓌,0.7,10.1,83,0,2,0.06,90,��,5.8,20
2011/5/14,19:00:00,293,���k��,2.1,9.9,72,0,0,0.01,293,���k��,4.9,31
2011/5/14,20:00:00,293,���k��,1.6,9.7,73.8,0,0,0,293,���k��,3.4,6
2011/5/14,21:00:00,23,�k�k��,4.6,7.2,89.8,0,0,0,68,���k��,8.6,9
2011/5/14,22:00:00,45,�k��,3.1,6.7,93.1,0,0,0,45,�k��,7.2,20
2011/5/14,23:00:00,68,���k��,1.4,6.1,93.7,0,0,0,68,���k��,5.1,23
2011/5/14,0:00:00,203,��쐼,1.2,6.2,95.7,0.5,0,0,45,�k��,2.4,12
2011/5/15,1:00:00,293,���k��,1.5,5.5,94.2,1,0,0,293,���k��,2.9,30
2011/5/15,2:00:00,315,�k��,1.2,4.9,91.4,0,0,0,293,���k��,2.9,32
2011/5/15,3:00:00,270,��,1.3,4.7,92.9,0,0,0,293,���k��,2.1,36
2011/5/15,4:00:00,338,�k�k��,1.5,4.2,93,0,0,0,338,�k�k��,2.7,48
2011/5/15,5:00:00,360,�k,0.6,4.4,92.3,0,0,0.01,315,�k��,2,42
2011/5/15,6:00:00,360,�k,1.8,4.1,88.7,0,0,0.04,23,�k�k��,3.2,36
2011/5/15,7:00:00,23,�k�k��,1.8,4.2,91.6,0,0,0.07,23,�k�k��,2.7,50
2011/5/15,8:00:00,45,�k��,2.6,4.7,96,0,23,0.11,68,���k��,4,59
2011/5/15,9:00:00,90,��,3.7,4.7,95.4,0.5,60,0.24,90,��,5.3,51
2011/5/15,10:00:00,113,���쓌,3.4,5.2,95.7,0,60,0.36,90,��,4.9,30
2011/5/15,11:00:00,135,�쓌,2.9,4.5,92.1,0,60,0.45,113,���쓌,5.4,21
2011/5/15,12:00:00,135,�쓌,3.3,4.7,86.2,0,60,0.41,135,�쓌,5.5,31
2011/5/15,13:00:00,158,��쓌,3.5,5.2,83.5,0,60,0.56,135,�쓌,6.2,22
2011/5/15,14:00:00,135,�쓌,3.6,5.2,83.4,0,60,0.49,158,��쓌,6.4,17
2011/5/15,15:00:00,135,�쓌,2.9,5.3,84.2,0,60,0.36,113,���쓌,5.5,16
2011/5/15,16:00:00,135,�쓌,2.9,5.2,84.1,0,60,0.25,113,���쓌,6.3,18
2011/5/15,17:00:00,158,��쓌,2.8,5.2,86,0,59,0.25,135,�쓌,5.7,45
2011/5/15,18:00:00,203,��쐼,2.7,4.9,88.5,0,3,0.08,180,��,5.4,13
2011/5/15,19:00:00,225,�쐼,1.3,3.6,94.8,0,0,0.02,203,��쐼,4.4,3
2011/5/15,20:00:00,90,��,0.6,2,97,0,0,0,293,���k��,3.4,40
2011/5/15,21:00:00,293,���k��,0.7,-0.4,98.3,0,0,0,270,��,1.5,26
2011/5/15,22:00:00,315,�k��,0.8,-0.4,99.1,0,0,0,270,��,2.7,27
2011/5/15,23:00:00,270,��,1.6,2.3,99,0,0,0,248,���쐼,2.9,59
2011/5/15,0:00:00,293,���k��,1.5,2.7,98.9,0,0,0,248,���쐼,3.5,0
2011/5/16,1:00:00,293,���k��,1.5,2.8,98.8,0,0,0,270,��,2.3,47
2011/5/16,2:00:00,293,���k��,2.3,3.1,98.7,0,0,0,293,���k��,3.6,49
2011/5/16,3:00:00,293,���k��,2.9,2.7,98.7,0,0,0,293,���k��,4.1,57
2011/5/16,4:00:00,293,���k��,2.4,2.7,98.9,0,0,0,293,���k��,3.8,1
2011/5/16,5:00:00,315,�k��,1.8,3.1,98.7,0,0,0.02,315,�k��,3.5,5
2011/5/16,6:00:00,293,���k��,1.9,3.6,98,0,0,0.06,315,�k��,3.1,0
2011/5/16,7:00:00,225,�쐼,1.5,4.3,91.1,0,49,0.17,180,��,3.1,49
2011/5/16,8:00:00,248,���쐼,1.3,5.8,84.2,0,60,0.36,225,�쐼,2.9,2
2011/5/16,9:00:00,135,�쓌,2.3,7.3,84.3,0,60,0.49,135,�쓌,5.3,38
2011/5/16,10:00:00,90,��,4.1,7.1,83.3,0,60,0.62,113,���쓌,6.7,0
2011/5/16,11:00:00,90,��,4.5,8.6,85.6,0,60,0.77,90,��,8.3,0
2011/5/16,12:00:00,90,��,4.5,7.3,82.9,0,60,0.74,90,��,8.1,30
2011/5/16,13:00:00,68,���k��,4.4,7.5,86.3,0,60,0.55,90,��,7.9,10
2011/5/16,14:00:00,45,�k��,3.8,8,86,0,60,0.44,68,���k��,8.4,20
2011/5/16,15:00:00,45,�k��,4.6,6.7,91.9,0,60,0.25,45,�k��,6.5,52